Sivas, Turkey

11:21 PM +03 on April 23, 2017 (GMT +0300)
Sivas

Weather History for LTAR - November, 2013

Change the Weather History Date:

Tuesday, November 19, 2013

  Actual Average Record
Temperature  
Mean Temperature 43 °F -  
Max Temperature 59 °F 43 °F - ()
Min Temperature 27 °F 28 °F - ()
Degree Days  
Heating Degree Days 22    
Moisture  
Dew Point 27 °F    
Average Humidity 56    
Maximum Humidity 93    
Minimum Humidity 23    
Precipitation  
Precipitation 0.00 in 0.06 in - ()
Sea Level Pressure  
Sea Level Pressure 30.23 in    
Wind  
Wind Speed 6 mph ()    
Max Wind Speed 10 mph    
Max Gust Speed -    
Visibility 6.6 miles    
Events      
T = Trace of Precipitation, MM = Missing Value Source: Averaged Metar Reports

Daily Weather History Graph

Daily Weather History Graph

Search for Another Location

Airport or City:

Trip Planner

Search our weather history database for the weather conditions in past years. The results will help you decide how hot, cold, wet, or windy it might be!

Date:

Astronomy

Nov. 19, 2013 Rise Set
Actual Time 6:21 AM EET 4:13 PM EET
Civil Twilight 5:52 AM EET 4:42 PM EET
Nautical Twilight 5:19 AM EET 5:15 PM EET
Astronomical Twilight 4:47 AM EET 5:47 PM EET
Moon 5:47 PM EET (11/19) 7:43 AM EET (11/19)
Length of Visible Light 10h 50m
Length of Day
9h 52m
Full, 97% of the Moon is Illuminated
Nov 19
Full
Nov 25
Last Quarter
Dec 3
New
Dec 9
First Quarter
Dec 17
Full

Hourly Weather History & Observations

Time (EET) Temp. Windchill Dew Point Humidity Pressure Visibility Wind Dir Wind Speed Gust Speed Precip Events Conditions
2:50 AM 32.0 °F 26.4 °F 26.6 °F 80% 30.21 in - East 5.8 mph - N/A   Clear
3:50 AM 28.4 °F 23.3 °F 24.8 °F 86% 30.21 in - ESE 4.6 mph - N/A   Clear
5:50 AM 26.6 °F 16.8 °F 24.8 °F 93% 30.21 in - ESE 10.4 mph - N/A   Clear
6:50 AM 30.2 °F 21.9 °F 26.6 °F 86% 30.24 in - East 9.2 mph - N/A   Clear
7:50 AM 39.2 °F 33.0 °F 32.0 °F 75% 30.24 in - East 9.2 mph - N/A   Clear
8:00 AM 32 °F - 25 °F 66%  in 9 mi Calm Calm - -  
8:50 AM 42.8 °F 37.0 °F 28.4 °F 57% 30.24 in - East 10.4 mph - N/A   Clear
9:50 AM 44.6 °F 39.2 °F 30.2 °F 57% 30.24 in - East 10.4 mph - N/A   Clear
10:50 AM 48.2 °F - 28.4 °F 46% 30.24 in - SE 6.9 mph - N/A   Clear
11:00 AM 47 °F - 30 °F 39%  in 9 mi ESE 2.3 mph - -  
11:50 AM 50.0 °F - 28.4 °F 43% 30.24 in - SSE 9.2 mph - N/A   Clear
12:50 PM 50.0 °F - 28.4 °F 43% 30.24 in - SSE 6.9 mph - N/A   Clear
1:50 PM 51.8 °F - 26.6 °F 38% 30.21 in - SSE 8.1 mph - N/A   Clear
2:00 PM 58 °F - 30 °F 23%  in 9 mi SE 1.2 mph - -  
2:50 PM 50.0 °F - 26.6 °F 40% 30.21 in - SE 5.8 mph - N/A   Clear
3:50 PM 48.2 °F - 26.6 °F 43% 30.21 in - East 4.6 mph - N/A   Clear
4:50 PM 42.8 °F 38.6 °F 26.6 °F 53% 30.21 in - East 6.9 mph - N/A   Clear
5:00 PM 48 °F - 30 °F 38%  in 3 mi NE 1.2 mph - -   Haze
5:50 PM 41.0 °F 37.1 °F 24.8 °F 53% 30.24 in - East 5.8 mph - N/A   Clear
6:50 PM 41.0 °F 37.1 °F 24.8 °F 53% 30.24 in - East 5.8 mph - N/A   Clear
7:50 PM 35.6 °F 29.2 °F 23.0 °F 60% 30.24 in - SE 8.1 mph - N/A   Clear
8:00 PM 40 °F - 30 °F 56%  in 3 mi Calm Calm - -   Haze
8:50 PM 37.4 °F 30.8 °F 24.8 °F 60% 30.24 in - SE 9.2 mph - N/A   Clear
9:50 PM 35.6 °F - 23.0 °F 60% 30.24 in - Calm Calm - N/A   Clear
10:50 PM 35.6 °F 29.2 °F 23.0 °F 60% 30.24 in - East 8.1 mph - N/A   Clear